Wind_Speed
15 17 17 14 12 11 11 12 12 13 14 14 13 12 14 15 15 15 14 16 16 18 19 18 20 21 21 23 24 24 26 26 28 24 22 21 26 27 22 22 19 15 16
14 13 13 12 11 8 9 10 12 12 13 12 12 12 12 13 13 13 13 13 15 16 18 17 17 19 20 21 25 27 28 27 26 27 21 21 21 26 24 20 19 17 15
12 10 10 10 9 7 7 9 10 10 11 10 10 10 10 10 11 9 11 11 13 15 15 16 17 19 18 19 20 24 26 26 26 26 24 21 19 20 21 22 18 17 17
15 12 8 7 7 6 6 8 9 9 9 9 9 9 9 9 9 8 8 9 10 11 13 13 15 17 17 16 16 19 21 23 25 25 25 20 19 19 17 18 18 15 15
11 7 8 5 6 6 6 7 8 9 8 8 9 8 8 8 7 7 6 7 9 8 10 11 12 14 15 14 14 15 15 18 22 23 23 21 18 17 18 19 18 16 14
4 8 8 8 7 9 8 7 8 10 10 8 8 7 8 8 8 7 7 6 6 6 8 9 8 9 11 12 11 11 12 13 14 21 20 19 18 16 15 16 18 18 17
6 8 6 12 7 9 9 11 12 12 12 11 8 7 7 7 8 8 5 5 6 4 3 6 6 7 7 10 10 11 11 12 12 13 16 16 15 15 14 14 14 15 15
6 10 9 8 10 10 6 6 11 18 20 12 11 8 6 6 6 7 3 3 4 3 3 3 3 5 5 7 8 9 8 10 10 9 10 10 11 11 12 12 11 11 13
15 14 11 11 5 8 2 6 8 11 16 17 11 8 7 4 2 1 1 1 3 3 2 2 2 4 5 5 5 6 6 6 7 7 7 6 6 6 6 9 10 9 9
13 14 13 16 12 5 4 9 3 4 10 21 14 9 8 7 5 4 3 1 4 6 3 4 3 3 2 3 4 5 5 6 5 5 5 4 3 2 4 2 5 8 7
16 15 14 11 13 6 10 10 5 2 7 18 15 13 10 7 6 5 4 4 6 7 6 5 4 4 6 5 5 5 6 5 5 3 4 3 3 3 3 1 1 2 6
13 14 17 16 15 4 7 14 5 4 7 12 18 13 8 7 5 5 5 8 14 12 8 6 7 7 7 10 9 9 9 8 7 6 4 5 6 4 5 4 4 5 5
10 13 16 11 11 8 6 11 10 4 4 12 14 12 10 10 10 13 13 12 13 10 11 11 11 11 9 10 13 13 12 11 10 11 9 8 9 8 6 8 7 8 8
12 12 11 11 8 4 6 12 9 6 3 10 5 12 13 11 10 13 15 13 14 16 13 15 16 19 18 17 13 15 13 14 12 13 14 13 13 11 12 13 12 11 11
10 9 7 5 5 3 9 8 5 8 7 4 1 1 1 5 6 7 9 11 11 12 11 11 14 10 12 12 19 19 17 16 16 16 17 18 17 15 15 16 17 16 16
15 13 13 10 8 5 10 10 12 7 8 7 4 2 1 1 2 1 5 5 7 7 6 6 7 12 9 7 4 4 8 13 16 19 17 18 20 18 18 20 20 20 19
17 16 15 13 13 14 13 13 10 6 8 7 6 3 1 1 2 4 5 7 7 8 10 9 6 13 14 3 6 4 5 6 7 13 18 20 20 24 25 27 25 22 22
21 20 19 20 20 17 15 15 14 13 11 7 4 1 0 2 4 5 6 7 6 4 11 14 9 8 6 3 3 3 4 5 3 4 8 12 15 16 19 24 24 23 23
21 21 20 21 21 20 19 18 18 15 10 8 6 4 1 7 7 7 6 6 7 10 5 3 2 5 8 8 2 3 5 6 9 11 12 15 16 17 16 14 18 24 28
20 19 19 18 19 18 17 15 12 8 5 3 4 5 2 9 11 10 10 9 10 12 3 4 5 7 9 9 11 10 9 9 12 12 14 17 19 18 19 22 21 22 26
17 16 15 14 14 14 13 11 9 7 3 4 5 6 7 9 8 8 11 13 12 12 10 6 6 8 10 13 15 16 15 15 16 19 19 20 21 21 22 23 26 27 27
14 13 11 11 10 8 7 6 4 4 5 8 9 9 10 13 15 15 13 14 16 15 15 13 13 10 9 11 14 17 19 22 19 20 22 23 23 24 26 27 28 30 29
13 11 13 12 12 12 12 12 11 9 10 11 13 11 12 14 16 18 20 18 19 20 21 20 21 19 17 12 14 15 18 22 22 25 27 27 27 27 26 26 28 29 31
14 15 16 17 19 20 19 17 14 10 12 17 21 20 17 19 20 20 21 20 22 24 24 23 27 23 24 27 24 25 29 29 28 23 26 29 31 35 34 33 31 29 30
14 16 17 20 18 26 21 17 27 7 13 26 29 23 22 18 21 22 23 23 20 23 24 25 25 25 27 28 28 30 33 33 34 34 32 30 34 34 37 39 38 36 34
23 15 13 15 16 16 18 25 23 17 20 28 28 17 19 23 20 21 23 25 30 36 33 30 36 24 30 33 35 36 36 35 36 38 38 39 37 36 39 40 42 41 40
Wind_Direction
133 130 129 125 110 109 106 122 120 111 102 101 109 112 109 100 100 96 91 87 83 81 75 69 67 67 65 65 71 69 65 61 64 65 60 61 73 80 80 95 100 102 90
146 128 129 125 118 107 111 132 129 114 106 113 115 114 107 99 102 104 97 90 84 80 78 71 67 67 67 67 71 71 67 62 63 63 59 63 70 85 88 85 89 88 90
145 128 133 135 130 116 115 136 130 115 110 115 112 105 104 101 100 107 100 91 85 82 79 75 68 65 64 66 69 73 73 65 63 66 59 64 67 77 89 96 92 90 96
121 117 133 145 135 133 129 146 142 132 125 126 117 111 110 114 113 108 107 104 95 88 87 83 79 77 68 64 70 74 78 77 70 66 65 58 69 78 82 92 99 99 99
126 129 114 131 156 152 143 149 153 150 143 135 124 118 115 121 116 110 99 108 104 93 86 79 81 80 79 65 60 69 72 81 83 74 67 63 59 71 80 87 93 99 104
159 147 188 173 181 169 165 166 177 172 160 147 139 135 129 121 112 102 96 98 102 100 96 96 83 78 83 81 66 65 67 61 73 88 81 73 63 61 70 82 89 93 95
148 208 185 167 164 168 177 183 190 194 180 157 155 150 143 129 114 92 81 95 102 108 99 99 93 82 69 74 64 52 60 63 44 66 91 91 83 73 68 73 81 93 94
149 164 172 207 162 162 181 235 244 201 187 161 158 162 168 159 139 116 52 86 92 76 61 66 71 88 62 65 62 45 46 58 59 56 59 77 94 91 87 78 81 83 95
148 138 166 164 161 168 42 337 295 288 192 170 166 165 181 171 154 128 207 323 13 359 23 25 17 31 33 16 39 31 25 47 53 48 62 57 75 101 100 107 97 89 93
150 159 165 197 186 100 216 325 304 283 223 171 166 180 185 187 199 207 211 229 282 278 273 290 319 325 344 354 354 355 356 7 22 28 37 36 18 36 107 105 125 126 114
157 176 189 156 225 228 163 166 133 238 223 176 176 201 197 204 225 235 243 242 268 275 275 279 284 313 330 316 310 316 320 334 346 355 13 14 359 331 316 238 227 213 168
169 173 170 189 207 191 160 158 170 237 257 202 190 201 205 226 246 277 283 277 281 284 276 282 317 329 307 305 304 309 300 310 304 303 306 302 294 286 299 288 265 251 250
163 174 168 190 174 180 172 188 171 178 203 197 202 213 220 241 256 265 269 269 276 258 269 284 294 300 295 293 307 298 293 296 294 292 289 286 284 283 285 287 282 273 252
132 149 153 168 156 159 189 192 200 170 190 215 209 222 235 248 261 281 280 286 287 277 274 288 292 304 294 274 273 269 278 287 284 278 285 282 278 278 279 279 273 269 264
110 125 135 131 126 114 72 77 142 154 123 116 244 48 348 319 326 330 333 336 329 317 311 306 303 340 335 299 277 287 282 262 264 266 267 277 281 276 274 274 274 270 269
85 85 88 81 86 86 77 88 99 118 111 103 112 70 33 307 275 294 354 352 21 50 41 355 349 358 327 315 311 297 289 275 260 261 260 264 270 271 274 277 273 271 268
72 74 76 82 86 82 78 80 92 105 107 109 106 106 298 290 42 39 22 48 46 34 22 352 304 328 338 295 312 311 323 325 284 273 274 275 271 266 264 264 265 264 266
71 69 70 72 74 77 83 93 92 92 92 93 100 143 348 4 358 344 350 360 1 352 83 44 82 5 16 6 275 278 286 290 292 277 282 281 281 279 273 259 255 259 260
78 78 76 73 75 77 76 79 79 78 86 69 37 18 315 360 346 320 312 309 289 274 66 67 351 347 331 337 335 310 317 277 281 282 274 270 275 285 292 283 266 261 262
77 77 78 80 80 79 81 81 82 77 70 52 27 14 6 329 335 339 331 342 307 300 347 347 352 335 329 327 314 309 312 298 297 300 290 285 288 291 292 284 280 274 274
82 78 79 80 82 83 80 81 79 66 43 350 336 345 334 314 330 322 324 328 318 312 313 325 316 293 303 311 312 314 311 308 304 300 297 299 299 298 292 291 291 286 283
79 79 73 68 64 61 61 59 47 20 332 322 324 329 320 316 317 316 314 312 308 307 309 309 296 291 288 290 302 306 306 306 307 305 302 301 296 294 294 295 288 292 293
65 53 49 42 40 35 28 15 357 335 314 309 306 300 302 298 300 305 309 308 307 311 311 313 308 303 303 298 296 298 299 300 305 304 304 301 297 294 290 287 284 284 286
33 25 47 32 46 42 35 27 8 353 2 335 303 292 291 294 296 296 301 306 313 312 305 299 302 303 311 313 318 316 312 306 301 290 282 283 291 294 291 288 281 277 279
23 26 36 34 42 62 51 28 11 10 332 345 331 284 281 290 295 296 298 301 296 288 283 290 288 286 278 298 304 306 307 304 298 291 290 291 287 278 282 286 285 282 275
44 44 31 47 40 27 30 5 12 33 0 343 345 304 291 291 282 282 286 289 297 293 288 297 291 293 297 303 293 297 303 301 293 294 294 293 289 281 283 281 279 280 279
Height
5896 5897 5897 5901 5904 5906 5907 5908 5910 5911 5911 5911 5913 5914 5914 5915 5917 5918 5919 5919 5918 5918 5918 5919 5919 5917 5917 5915 5912 5910 5908 5907 5902 5901 5903 5902 5898 5897 5899 5900 5900 5900 5899
5896 5898 5902 5905 5908 5909 5910 5912 5913 5912 5913 5915 5916 5916 5916 5917 5918 5919 5920 5920 5920 5920 5919 5920 5921 5919 5918 5918 5915 5913 5912 5912 5909 5905 5906 5905 5905 5901 5901 5902 5903 5902 5902
5902 5903 5904 5907 5908 5911 5912 5913 5914 5914 5916 5917 5917 5917 5918 5919 5920 5921 5921 5922 5922 5922 5922 5922 5923 5923 5922 5921 5919 5916 5914 5915 5913 5910 5910 5909 5909 5907 5905 5904 5905 5907 5907
5904 5905 5907 5909 5910 5912 5914 5915 5915 5915 5916 5917 5918 5917 5919 5920 5921 5922 5922 5923 5923 5924 5923 5923 5923 5923 5924 5923 5921 5919 5917 5917 5917 5915 5913 5915 5914 5912 5910 5908 5909 5910 5910
5906 5907 5908 5910 5912 5913 5914 5915 5915 5916 5917 5917 5918 5919 5921 5922 5923 5924 5924 5924 5924 5925 5925 5925 5924 5924 5924 5924 5924 5921 5921 5919 5917 5916 5917 5917 5917 5916 5915 5913 5911 5911 5913
5906 5908 5908 5910 5911 5911 5913 5914 5915 5916 5917 5918 5920 5921 5922 5923 5924 5925 5925 5926 5927 5927 5925 5925 5926 5925 5924 5924 5924 5924 5923 5922 5920 5918 5918 5918 5920 5919 5918 5916 5915 5914 5913
5907 5907 5908 5910 5911 5910 5911 5913 5915 5916 5917 5917 5921 5922 5923 5924 5925 5926 5927 5928 5928 5929 5929 5927 5927 5926 5927 5926 5926 5926 5924 5923 5924 5921 5919 5919 5920 5920 5920 5919 5918 5917 5916
5906 5907 5908 5908 5909 5909 5910 5912 5912 5913 5915 5917 5919 5922 5925 5925 5925 5927 5929 5929 5929 5930 5930 5930 5928 5928 5928 5927 5926 5926 5925 5924 5923 5924 5924 5923 5921 5922 5921 5921 5920 5919 5918
5906 5907 5909 5909 5908 5909 5909 5911 5911 5911 5916 5917 5920 5922 5924 5926 5927 5928 5930 5930 5931 5932 5931 5930 5930 5929 5929 5929 5927 5927 5926 5925 5924 5924 5924 5925 5924 5923 5923 5922 5922 5922 5921
5906 5907 5907 5908 5909 5908 5910 5910 5910 5912 5914 5917 5919 5921 5923 5924 5925 5927 5928 5930 5931 5931 5931 5930 5929 5929 5929 5929 5928 5927 5927 5927 5926 5924 5924 5924 5925 5925 5923 5923 5922 5921 5922
5904 5905 5907 5908 5909 5908 5906 5907 5910 5911 5913 5914 5917 5921 5922 5923 5924 5926 5927 5928 5929 5929 5930 5930 5930 5930 5930 5930 5929 5927 5927 5926 5926 5925 5924 5924 5924 5924 5924 5922 5923 5922 5921
5906 5907 5907 5907 5908 5907 5907 5908 5910 5912 5913 5915 5917 5920 5921 5923 5924 5925 5926 5927 5928 5929 5930 5930 5931 5931 5931 5930 5928 5928 5927 5926 5926 5925 5924 5924 5923 5923 5923 5922 5921 5921 5921
5907 5908 5907 5908 5909 5909 5909 5910 5910 5912 5915 5916 5919 5921 5921 5923 5924 5924 5923 5922 5925 5927 5928 5928 5929 5929 5929 5929 5929 5928 5927 5926 5925 5924 5924 5923 5924 5923 5922 5921 5920 5920 5919
5908 5909 5910 5910 5910 5911 5911 5911 5913 5914 5915 5917 5918 5920 5922 5923 5923 5923 5923 5923 5925 5924 5925 5926 5925 5924 5922 5922 5923 5923 5924 5923 5923 5922 5921 5921 5921 5921 5921 5920 5919 5918 5917
5912 5912 5913 5914 5914 5915 5915 5915 5915 5917 5918 5918 5921 5922 5923 5923 5922 5921 5921 5920 5921 5920 5920 5920 5920 5919 5917 5917 5919 5919 5920 5919 5919 5919 5918 5918 5918 5916 5916 5916 5916 5916 5915
5915 5915 5915 5916 5916 5917 5917 5917 5919 5920 5921 5921 5922 5922 5922 5921 5921 5920 5920 5920 5920 5918 5917 5919 5919 5918 5914 5913 5913 5914 5914 5914 5913 5913 5912 5912 5912 5911 5911 5911 5911 5912 5911
5919 5919 5920 5920 5920 5920 5919 5921 5922 5923 5924 5923 5923 5922 5921 5921 5921 5920 5922 5923 5923 5922 5921 5918 5918 5916 5914 5911 5911 5911 5909 5909 5907 5907 5906 5906 5905 5904 5904 5903 5903 5904 5905
5925 5925 5926 5925 5924 5925 5925 5925 5926 5925 5925 5925 5924 5923 5923 5922 5921 5922 5922 5924 5922 5921 5917 5917 5916 5915 5914 5911 5909 5908 5906 5906 5905 5903 5903 5902 5900 5898 5898 5897 5897 5898 5898
5929 5929 5929 5929 5929 5929 5930 5930 5930 5929 5929 5928 5926 5924 5924 5923 5922 5921 5921 5921 5919 5917 5919 5916 5913 5913 5913 5911 5909 5906 5904 5902 5903 5902 5902 5901 5899 5897 5896 5893 5892 5892 5892
5932 5932 5932 5931 5931 5932 5932 5931 5931 5931 5930 5929 5927 5925 5924 5923 5921 5921 5921 5921 5919 5919 5919 5916 5913 5911 5910 5910 5909 5907 5902 5902 5901 5899 5897 5895 5894 5893 5892 5891 5889 5890 5888
5933 5932 5933 5933 5934 5934 5935 5934 5934 5933 5931 5929 5927 5927 5926 5924 5920 5920 5921 5920 5919 5917 5916 5914 5911 5910 5908 5907 5906 5903 5902 5899 5899 5897 5894 5892 5890 5890 5888 5887 5885 5883 5880
5933 5933 5933 5934 5935 5936 5936 5935 5935 5934 5932 5930 5929 5929 5926 5924 5923 5921 5919 5918 5919 5917 5916 5914 5912 5908 5905 5904 5903 5901 5899 5897 5894 5892 5891 5888 5886 5884 5883 5882 5880 5879 5877
5935 5935 5937 5937 5938 5938 5938 5938 5937 5935 5933 5930 5927 5926 5924 5922 5921 5920 5919 5917 5916 5915 5914 5913 5912 5909 5906 5902 5901 5899 5897 5894 5891 5885 5884 5882 5880 5879 5877 5875 5873 5871 5871
5934 5935 5936 5934 5935 5936 5936 5935 5934 5931 5929 5929 5927 5923 5921 5919 5918 5917 5916 5915 5912 5912 5911 5909 5906 5904 5902 5899 5894 5891 5890 5888 5886 5887 5880 5876 5873 5869 5868 5866 5865 5863 5862
5935 5935 5934 5935 5935 5934 5934 5932 5929 5925 5926 5925 5922 5919 5917 5915 5914 5912 5910 5909 5907 5904 5902 5900 5897 5897 5896 5892 5889 5886 5884 5880 5877 5876 5874 5873 5865 5863 5860 5855 5854 5854 5852
5933 5932 5933 5934 5934 5932 5931 5930 5929 5927 5927 5921 5913 5911 5916 5915 5912 5909 5907 5904 5902 5899 5897 5895 5893 5890 5889 5887 5883 5879 5876 5873 5869 5865 5863 5860 5857 5855 5850 5845 5841 5840 5840